Theta_e
332 332 337 339 341 342 346 349 354 354 355 355 355 355 355 353 355 350 351 352 347 344 344 346 350 349 349 348 348 348 348 345 344
330 332 334 338 342 345 347 349 352 354 355 356 355 352 358 356 355 353 352 353 352 345 353 343 346 347 347 348 347 347 348 343 342
326 334 335 336 340 345 350 350 353 353 356 356 352 353 352 352 352 352 353 352 350 350 351 350 348 347 346 346 345 345 343 343 340
324 327 336 338 341 347 352 350 350 349 351 353 350 351 353 351 347 348 350 348 348 349 352 351 349 347 345 344 342 344 342 342 342
327 330 335 342 342 348 350 349 347 345 344 346 347 349 352 350 349 349 349 348 348 350 349 350 348 347 345 344 342 342 340 339 340
334 337 344 344 343 344 348 349 347 343 341 341 343 347 343 347 348 347 348 349 349 349 348 346 346 346 343 342 342 341 341 339 338
331 338 339 345 344 344 347 348 346 344 340 340 341 341 342 346 347 348 347 349 350 348 348 347 347 345 344 342 341 341 339 338 337
329 334 338 345 343 345 347 347 345 344 341 345 342 343 345 347 349 349 349 348 348 347 347 346 347 344 343 343 341 336 341 338 338
327 330 331 340 345 344 348 347 345 342 341 344 348 341 343 347 348 347 346 348 348 347 347 348 345 343 342 342 337 329 332 333 336
328 330 332 334 343 343 351 347 345 341 344 345 345 346 346 346 347 346 347 347 347 347 348 346 345 343 342 340 340 324 326 330 331
327 330 332 335 338 346 350 347 344 346 344 344 346 345 345 345 346 345 347 347 346 347 347 345 342 341 341 340 336 322 321 325 331
328 334 340 341 337 342 349 346 347 347 342 343 344 343 344 345 345 345 346 345 345 347 346 343 342 341 340 337 337 321 319 322 330
330 332 339 343 345 347 349 348 348 344 341 343 341 342 344 346 347 347 346 346 344 342 347 341 336 336 339 333 339 319 318 323 322
333 337 339 344 348 348 350 350 347 341 341 342 344 345 346 347 348 350 350 350 344 343 338 336 338 338 337 338 335 330 320 317 324
335 337 339 343 348 348 351 352 349 342 343 348 355 351 349 351 352 343 341 349 347 341 342 338 335 335 332 330 329 318 318 317 316
337 338 340 342 346 351 351 351 355 352 353 354 356 354 353 353 351 347 348 345 340 340 338 334 336 330 326 325 326 329 318 315 313
340 340 341 343 347 346 347 355 354 355 354 354 350 351 352 351 347 347 341 341 338 332 335 331 329 323 328 327 328 318 315 317 320
341 343 339 340 340 335 332 333 330 336 343 343 347 348 347 347 342 340 337 320 318 326 311 312 321 318 320 316 318 309 301 301 309
342 340 341 335 335 332 327 334 337 340 340 346 345 342 338 337 336 326 331 324 317 301 300 297 296 297 305 309 301 297 296 296 296
332 339 338 334 331 337 333 334 340 339 340 339 340 338 338 333 326 331 330 330 330 322 308 301 299 299 299 299 298 297 296 297 298
Wind_Speed
22 21 19 19 17 17 17 16 14 13 13 11 9 7 6 5 3 3 3 4 4 3 3 3 1 1 3 5 5 5 3 4 4
18 21 20 21 19 18 17 15 14 14 13 11 10 9 6 6 5 4 2 2 1 4 1 4 6 3 5 5 6 5 6 4 5
6 17 20 18 19 20 18 16 13 15 13 11 10 9 9 7 6 6 4 3 3 3 4 4 4 4 5 5 7 5 5 3 6
4 9 15 17 15 17 18 17 15 14 13 12 10 8 7 5 4 5 6 4 4 4 4 4 4 5 5 6 8 7 6 5 7
6 2 11 16 15 17 18 16 16 15 14 12 11 8 7 7 5 4 3 4 4 3 4 4 5 5 6 7 8 6 6 6 6
6 9 8 14 14 15 17 18 15 15 15 14 12 9 7 7 6 6 5 5 4 4 4 5 6 5 6 7 7 7 7 7 5
7 9 9 14 13 15 18 17 16 14 15 14 12 12 10 9 8 7 6 5 5 4 6 6 5 5 6 7 8 8 9 7 6
5 5 12 14 16 14 16 16 15 14 13 9 10 8 7 7 7 7 7 6 6 6 6 5 6 6 7 7 7 7 2 3 6
7 5 8 8 17 16 18 17 16 13 12 10 6 8 8 7 7 9 8 8 7 7 6 4 5 6 6 5 6 4 6 6 5
6 7 7 10 10 12 14 18 16 14 12 10 9 7 7 7 7 7 7 8 7 5 3 5 5 6 6 6 6 7 10 9 6
4 7 8 9 6 9 14 17 17 14 13 10 10 11 10 9 8 8 8 8 7 5 5 5 5 7 6 6 6 9 7 9 8
0 4 4 6 7 9 14 16 15 14 13 12 11 12 11 10 9 9 9 8 6 5 5 6 6 6 7 7 7 3 7 7 7
2 3 3 4 5 7 15 15 16 14 13 13 13 13 12 10 10 9 9 7 7 4 2 4 6 8 7 7 3 4 9 4 2
3 4 4 4 5 7 12 11 14 13 12 11 12 12 11 10 10 8 7 5 3 4 4 3 7 6 7 6 2 4 8 5 3
8 7 7 7 6 10 10 9 10 12 11 9 7 7 7 7 7 5 4 4 3 4 4 6 8 6 7 6 2 4 3 8 8
9 9 7 7 8 9 9 9 6 7 5 3 1 2 4 4 3 5 3 3 5 4 7 8 3 4 6 4 4 4 2 7 9
5 7 9 7 8 9 8 8 10 5 4 3 1 3 3 4 4 2 3 5 6 5 2 1 1 3 3 3 2 5 5 6 7
7 8 9 13 13 14 17 13 14 17 13 9 6 5 2 3 4 6 6 10 10 5 8 4 4 5 5 5 5 4 3 3 6
9 11 9 11 11 11 8 7 6 8 3 3 2 4 5 3 3 4 5 8 6 15 10 8 11 7 6 4 6 5 7 7 10
10 10 8 9 5 9 7 5 2 9 3 2 3 4 4 2 4 3 2 4 4 4 2 4 7 7 6 6 1 5 7 9 8
Wind_Direction
193 189 184 181 179 170 165 166 163 158 161 167 173 176 148 103 104 252 220 53 42 338 337 342 0 312 286 295 288 277 305 291 300
192 185 190 182 173 164 165 172 168 153 162 178 177 170 147 165 173 188 296 53 23 266 30 330 57 328 293 285 280 281 274 275 310
234 196 184 187 180 167 165 175 169 154 166 184 183 166 164 195 172 169 183 179 226 259 257 264 276 285 290 310 307 292 302 302 299
191 231 201 181 181 168 166 174 169 164 166 183 185 180 168 150 157 180 173 189 221 243 274 274 273 275 276 286 291 290 288 276 255
150 205 273 171 180 168 167 175 170 172 171 180 193 175 165 158 166 184 198 196 226 250 266 268 274 269 270 279 284 283 299 289 307
163 165 165 171 189 182 173 177 177 177 176 183 184 181 158 161 168 175 193 215 230 243 251 253 258 270 280 284 291 282 261 265 276
185 183 198 180 189 191 181 178 175 175 177 184 183 175 177 169 169 180 196 212 221 234 245 255 273 276 272 271 267 269 265 261 262
269 245 197 191 191 193 182 173 172 171 172 184 172 164 157 162 160 174 188 213 216 236 250 257 260 266 265 268 267 281 6 279 256
294 244 257 237 195 193 175 171 173 162 169 160 150 168 176 165 179 180 194 213 215 220 236 269 281 287 275 282 288 140 244 260 279
293 302 286 284 207 181 170 164 164 171 167 155 164 176 193 177 189 190 201 212 218 213 241 258 272 285 284 276 285 209 242 244 255
293 280 280 283 219 178 161 160 165 164 162 170 175 186 196 193 193 199 205 211 217 204 216 237 256 260 264 275 275 208 250 251 259
75 296 294 274 257 184 161 166 163 163 168 179 186 195 198 199 200 207 213 217 215 209 222 247 241 250 260 271 266 308 1 342 314
12 310 284 245 221 168 153 165 156 164 175 181 193 197 198 196 205 209 217 222 198 177 211 278 279 276 268 268 96 123 171 124 40
192 232 201 200 202 163 143 160 154 168 180 196 199 193 192 196 203 200 205 182 122 160 234 266 286 299 304 294 295 239 191 210 227
180 201 177 181 157 130 145 164 153 176 186 201 181 187 193 195 191 193 153 172 158 203 220 246 260 266 263 291 249 24 181 220 245
188 180 178 182 148 147 161 161 165 148 122 108 57 181 182 198 160 148 183 191 172 227 241 240 263 234 260 306 46 83 229 298 280
180 181 159 169 166 151 162 125 92 67 117 108 176 240 214 165 149 179 215 222 205 199 306 318 237 283 11 6 74 45 12 339 313
76 64 67 67 73 71 57 5 58 55 4 45 15 298 221 217 230 207 232 52 347 75 64 36 6 36 360 11 12 43 269 293 328
87 84 81 87 82 92 85 143 252 114 105 143 222 242 200 233 272 281 145 143 115 49 93 101 98 92 56 105 97 344 325 295 292
89 103 107 119 113 125 121 124 24 91 121 138 212 239 278 278 230 328 51 83 76 133 103 70 98 100 90 69 291 329 331 332 307